Weather in Mailuu-Suu

Kyrgyzstan     41°15′49″N   72°28′06″E
temp.,
°C
wind,
m/s
gust,
m/s
humid.,
%
clouds,
%
prec.,
mm/h
press.,
hPa
HPBL,
m
12 april, mon
mon1200:00+10nne55555 0.4 101764
03:00+8e215540 0.0 101712
06:00+7ene116198 0.0 101911
09:00+10s11520 0.0 1020407
12:00+14sw32452 0.0 10191204
15:00+16sw33412 0.1 10171590
18:00+16sw32445 0.1 1016906
21:00+11n22613 0.3 101814
13 april, tue
tue1300:00+11ne32604 0.4 101816
03:00+10ne3262100 0.0 101817
06:00+10nne1161100 0.0 101810
09:00+11wsw1158100 0.0 1020238
12:00+14ssw3254100 0.1 1019877
15:00+15sw3253100 0.2 10191051
18:00+15sw2153100 0.5 10191001
21:00+11ene226930 0.3 102114
14 april, wed
wed1400:00+10ne226840 0.3 102119
03:00+9ne22665 0.0 101912
06:00+9ne22694 0.0 102013
09:00+13s11571 0.0 1019422
12:00+16sw22485 0.0 10171293
15:00+19sw3342100 0.1 10141700
18:00+18wsw22425 0.1 10131115
21:00+13nne22581 0.2 101413
15 april, thu
thu1500:00+12ne33570 0.6 101424
03:00+12ne22580 0.3 101414
06:00+11ene335954 0.3 101416
09:00+16e01479 0.0 1014332
12:00+19sw223898 0.0 10121357
15:00+21wsw323084 0.0 10092089
18:00+21w2230100 0.0 10081161
21:00+16nne3242100 0.0 100918
16 april, fri
fri1600:00+13ne3356100 0.3 101321
03:00+13nne1158100 0.1 101210
06:00+11ese1170100 0.3 101414
09:00+14sse1248100 0.3 1015633
12:00+15sw2345100 0.3 10151294
15:00+17wsw3343100 0.0 10141737
18:00+16sw2339100 0.0 10131616
21:00+13ene2248100 0.0 101516